Weather History for KFDY - October, 2012

Change the Weather History Date:

Monday, October 29, 2012

  Actual Average Record
Temperature  
Mean Temperature 40 °F -  
Max Temperature 42 °F 55 °F - (-1)
Min Temperature 37 °F 37 °F - (-1)
Degree Days  
Heating Degree Days 26    
Moisture  
Dew Point 32 °F    
Average Humidity 73    
Maximum Humidity 87    
Minimum Humidity 57    
Precipitation  
Precipitation 0.02 in - - ()
Sea Level Pressure  
Sea Level Pressure 29.93 in    
Wind  
Wind Speed 18 mph (NNW)    
Max Wind Speed 30 mph    
Max Gust Speed 44 mph    
Visibility 10 miles    
Events Snow    
Averages and records for this station are not official NWS values.
T = Trace of Precipitation, MM = Missing Value Source: NWS Daily Summary

Daily Weather History Graph

Daily Weather History Graph

Search for Another Location

Airport or City:

Trip Planner

Search our weather history database for the weather conditions in past years. The results will help you decide how hot, cold, wet, or windy it might be!

Date:

Astronomy

Oct. 29, 2012 Rise Set
Actual Time 8:02 AM EDT 6:33 PM EDT
Civil Twilight 7:34 AM EDT 7:01 PM EDT
Nautical Twilight 7:01 AM EDT 7:34 PM EDT
Astronomical Twilight 6:29 AM EDT 8:06 PM EDT
Moon 6:24 PM EDT (10/29) 7:52 AM EDT (10/29)
Length of Visible Light 11h 27m
Length of Day
10h 30m
Full, 100% of the Moon is Illuminated
Oct 29
Full
Oct 29
Full
Nov 6
Last Quarter
Nov 13
New
Nov 20
First Quarter

Hourly Weather History & Observations

Time (EDT) Temp. Windchill Dew Point Humidity Pressure Visibility Wind Dir Wind Speed Gust Speed Precip Events Conditions
12:53 AM 39.0 °F 29.6 °F 33.1 °F 79% 30.05 in 10.0 mi North 18.4 mph - N/A   Overcast
1:29 AM 39.2 °F 31.6 °F 33.8 °F 81% 30.04 in 10.0 mi North 12.7 mph 23.0 mph N/A   Overcast
1:53 AM 39.0 °F 32.3 °F 33.1 °F 79% 30.04 in 10.0 mi North 10.4 mph - N/A   Overcast
2:53 AM 39.0 °F 29.9 °F 33.1 °F 79% 30.03 in 10.0 mi North 17.3 mph 24.2 mph N/A   Overcast
3:43 AM 37.4 °F 27.2 °F 32.0 °F 81% 30.02 in 9.0 mi North 19.6 mph 27.6 mph 0.00 in Snow Light Snow
3:53 AM 37.9 °F 28.5 °F 32.0 °F 79% 30.02 in 9.0 mi NNW 17.3 mph 27.6 mph 0.00 in Snow Light Snow
4:53 AM 37.9 °F 30.0 °F 32.0 °F 79% 30.01 in 9.0 mi NNW 12.7 mph 21.9 mph 0.00 in Snow Light Snow
5:42 AM 37.4 °F 28.2 °F 32.0 °F 81% 30.01 in 9.0 mi North 16.1 mph 24.2 mph 0.01 in Snow Light Snow
5:50 AM 37.4 °F 28.9 °F 33.8 °F 87% 30.01 in 9.0 mi NNW 13.8 mph 24.2 mph 0.01 in Snow Light Snow
5:53 AM 37.9 °F 29.6 °F 33.1 °F 83% 30.01 in 9.0 mi North 13.8 mph 25.3 mph 0.01 in Snow Light Snow
6:53 AM 37.9 °F 29.2 °F 32.0 °F 79% 30.01 in 9.0 mi NNW 15.0 mph 25.3 mph 0.00 in Snow Light Snow
7:53 AM 37.9 °F 28.9 °F 30.9 °F 76% 30.00 in 9.0 mi NNW 16.1 mph 29.9 mph 0.00 in Snow Light Snow
8:53 AM 39.0 °F 30.6 °F 30.9 °F 73% 30.00 in 10.0 mi NNW 15.0 mph 26.5 mph 0.00 in   Overcast
9:53 AM 39.0 °F 29.9 °F 30.9 °F 73% 29.99 in 10.0 mi NNW 17.3 mph 28.8 mph 0.01 in   Overcast
10:03 AM 39.2 °F 29.6 °F 30.2 °F 70% 29.99 in 10.0 mi NNW 19.6 mph 25.3 mph N/A   Overcast
10:46 AM 39.2 °F 30.2 °F 30.2 °F 70% 29.98 in 10.0 mi NNW 17.3 mph 26.5 mph N/A   Overcast
10:53 AM 39.9 °F 30.2 °F 30.9 °F 70% 29.99 in 10.0 mi NNW 20.7 mph 27.6 mph N/A   Overcast
11:05 AM 39.2 °F 29.6 °F 30.2 °F 70% 29.98 in 10.0 mi NNW 19.6 mph 26.5 mph N/A   Overcast
11:53 AM 39.9 °F 30.5 °F 32.0 °F 73% 29.98 in 10.0 mi North 19.6 mph 29.9 mph N/A   Overcast
12:53 PM 41.0 °F 30.7 °F 32.0 °F 70% 29.96 in 10.0 mi NNW 25.3 mph 35.7 mph N/A   Overcast
1:53 PM 42.1 °F 32.6 °F 32.0 °F 67% 29.94 in 10.0 mi NNW 23.0 mph 32.2 mph N/A   Overcast
2:53 PM 42.1 °F 32.6 °F 33.1 °F 70% 29.91 in 10.0 mi NNW 23.0 mph 36.8 mph N/A   Overcast
3:02 PM 42.8 °F 34.3 °F 33.8 °F 70% 29.91 in 10.0 mi NNW 19.6 mph 32.2 mph N/A   Overcast
3:28 PM 42.8 °F 32.3 °F 33.8 °F 70% 29.90 in 10.0 mi NNW 29.9 mph 39.1 mph N/A   Overcast
4:03 PM 41.0 °F 31.9 °F 33.8 °F 76% 29.89 in 10.0 mi NNW 19.6 mph 35.7 mph N/A   Overcast
4:38 PM 41.0 °F 30.9 °F 33.8 °F 76% 29.88 in 10.0 mi North 24.2 mph 38.0 mph N/A   Overcast
4:53 PM 41.0 °F 32.2 °F 33.1 °F 73% 29.88 in 10.0 mi NNW 18.4 mph 27.6 mph N/A   Overcast
5:13 PM 41.0 °F 31.6 °F 33.8 °F 76% 29.87 in 10.0 mi NNW 20.7 mph 32.2 mph N/A   Overcast
5:53 PM 41.0 °F 31.9 °F 32.0 °F 70% 29.86 in 10.0 mi NNW 19.6 mph 28.8 mph N/A   Overcast
6:53 PM 41.0 °F 30.9 °F 30.9 °F 67% 29.83 in 10.0 mi NNW 24.2 mph 33.4 mph N/A   Overcast
7:53 PM 41.0 °F 30.5 °F 30.9 °F 67% 29.81 in 10.0 mi North 26.5 mph 35.7 mph N/A   Overcast
8:53 PM 41.0 °F 31.6 °F 28.9 °F 62% 29.77 in 10.0 mi North 20.7 mph 40.3 mph N/A   Overcast
9:53 PM 41.0 °F 30.5 °F 28.0 °F 60% 29.74 in 10.0 mi North 26.5 mph 36.8 mph N/A   Overcast
10:53 PM 41.0 °F 30.0 °F 27.0 °F 57% 29.71 in 10.0 mi NNW 28.8 mph 43.7 mph N/A   Overcast
11:53 PM 39.0 °F 27.2 °F 27.0 °F 62% 29.67 in 10.0 mi NNW 29.9 mph 40.3 mph N/A   Overcast